Simultaneous Nadir Overpasses (SNOs) Predictions

Prediction of SNOs between AQUA and METOP-C Satellite Orbit:

Table of predicted SNOs for the next 14.0 days since TLE Epoch: 1/20/2024
Index Date (AQUA) Time (AQUA) Lat,Lon (AQUA) SZA (AQUA ) Date (METOP-C) Time (METOP-C) Lat,Lon (METOP-C) SZA (METOP-C ) Distance(km) Time Diff (sec)
1 01/20/2024 06:07:07 -75.04, -94.58 84.76 01/20/2024 06:06:24 -75.02, -94.53 84.78 3.35 43
2 01/20/2024 06:56:31 75.08, 72.96 95.28 01/20/2024 06:57:02 75.09, 73.02 95.29 1.99 31
3 01/22/2024 22:19:09 -74.99, 22.58 85.40 01/22/2024 22:18:02 -74.98, 22.46 85.41 3.55 67
4 01/22/2024 23:08:34 75.04,-169.89 94.64 01/22/2024 23:08:41 75.05,-170.01 94.66 3.69 7
5 01/22/2024 23:58:05 -75.48, -3.46 84.90 01/22/2024 23:59:13 -75.48, -1.40 84.95 57.48 68
6 01/25/2024 15:20:37 75.07, -52.96 94.05 01/25/2024 15:20:19 75.04, -52.93 94.02 3.45 18
7 01/25/2024 16:10:00 -75.12, 114.58 85.92 01/25/2024 16:10:59 -75.10, 114.57 85.94 1.47 59
8 01/28/2024 07:32:37 75.04, 64.16 93.34 01/28/2024 07:31:57 75.03, 64.11 93.33 2.37 40
9 01/28/2024 08:22:00 -75.09,-128.29 86.63 01/28/2024 08:22:37 -75.09,-128.36 86.62 2.17 37
10 01/30/2024 23:44:35 75.05,-178.80 92.62 01/30/2024 23:43:33 75.05,-178.73 92.63 1.96 62
11 01/31/2024 00:33:58 -75.09, -11.25 87.35 01/31/2024 00:34:14 -75.07, -11.33 87.36 2.59 16
12 02/02/2024 15:56:27 74.78, -61.05 91.59 02/02/2024 15:55:17 74.72, -62.56 91.57 44.78 70
13 02/02/2024 16:45:55 -75.07, 105.84 88.12 02/02/2024 16:45:51 -75.09, 105.81 88.10 2.04 4



Historial Predications of SNOs between AQUA and METOP-C
